WetterOnline ( https://www.wetteronline.de )

Wetter aktuell Jiretin pod Bukovou

Aktuelles Wetter: Liberec (401m)

6-stündlich | Neueste Meldungen
Ortszeit Temperatur Wetter
Sa, 24.10. 14:00 14.2° C leicht bewölkt
Sa, 24.10. 8:00 9.5° C Nebel
Sa, 24.10. 2:00 12.3° C bedeckt
Fr, 23.10. 20:00 12.2° C wolkig
Fr, 23.10. 14:00 11.3° C bedeckt
Fr, 23.10. 8:00 10.5° C bewölkt
Fr, 23.10. 2:00 11.6° C bedeckt
Do, 22.10. 20:00 12.8° C leicht bewölkt
Ortszeit Temperatur Wetter
Sa, 24.10. 19:00 9.4° C fast wolkenlos
Sa, 24.10. 18:00 12.0° C fast wolkenlos
Sa, 24.10. 17:00 14.5° C leicht bewölkt
Sa, 24.10. 16:00 15.1° C leicht bewölkt
Sa, 24.10. 15:00 15.1° C leicht bewölkt
Sa, 24.10. 14:00 14.2° C leicht bewölkt
Ortszeit Relative Feuchte Sichtweite
Sa, 24.10. 14:00 67% 35 km
Sa, 24.10. 8:00 95% 0.6 km
Sa, 24.10. 2:00 92% 7 km
Fr, 23.10. 20:00 89% 8 km
Fr, 23.10. 14:00 86% 12 km
Fr, 23.10. 8:00 81% 13 km
Fr, 23.10. 2:00 82% 21 km
Do, 22.10. 20:00 75% 25 km
Ortszeit Relative Feuchte Sichtweite
Sa, 24.10. 19:00 79% 30 km
Sa, 24.10. 18:00 71% 35 km
Sa, 24.10. 17:00 67% 35 km
Sa, 24.10. 16:00 62% 40 km
Sa, 24.10. 15:00 63% 35 km
Sa, 24.10. 14:00 67% 35 km
Ortszeit Niederschlagsmenge Niederschlagsart
Sa, 24.10. 14:00 0.0 l/m2 in 6 Std. -
Sa, 24.10. 8:00 3 l/m2 in 12 Std. -
Sa, 24.10. 2:00 3 l/m2 in 6 Std. Regenschauer
Fr, 23.10. 20:00 0.1 l/m2 in 12 Std. -
Fr, 23.10. 14:00 0.1 l/m2 in 6 Std. Regen
Fr, 23.10. 8:00 0.1 l/m2 in 12 Std. -
Fr, 23.10. 2:00 0.1 l/m2 in 6 Std. Regenschauer
Do, 22.10. 20:00 0.0 l/m2 in 12 Std. -
Ortszeit Niederschlagsmenge Niederschlagsart
Sa, 24.10. 19:00 0.0 l/m2 in 1 Std. -
Sa, 24.10. 18:00 0.0 l/m2 in 1 Std. -
Sa, 24.10. 17:00 0.0 l/m2 in 1 Std. -
Sa, 24.10. 16:00 0.0 l/m2 in 1 Std. -
Sa, 24.10. 15:00 0.0 l/m2 in 1 Std. -
Sa, 24.10. 14:00 0.0 l/m2 in 1 Std. -
Ortszeit Stärke Spitze Richtung
km/h Bft. km/h Grad Sektor
Sa, 24.10. 14:00 7 2 - 240° SW
Sa, 24.10. 8:00 4 1 - 80° O
Sa, 24.10. 2:00 7 2 - 80° O
Fr, 23.10. 20:00 11 2 - 100° O
Fr, 23.10. 14:00 7 2 - 130° SO
Fr, 23.10. 8:00 14 3 - 140° SO
Fr, 23.10. 2:00 11 2 - 120° SO
Do, 22.10. 20:00 11 2 - 130° SO
Ortszeit Stärke Spitze Richtung
km/h Bft. km/h Grad Sektor
Sa, 24.10. 19:00 7 2 - 190° S
Sa, 24.10. 18:00 7 2 - 200° S
Sa, 24.10. 17:00 7 2 - 200° S
Sa, 24.10. 16:00 11 2 - 210° SW
Sa, 24.10. 15:00 4 1 - 280° W
Sa, 24.10. 14:00 7 2 - 240° SW
Ortszeit Untergrenze Bedeckung Gattung
total tief tief mittel hoch
Sa, 24.10. 14:00 990 m 5/8 5/8 Cu - -
Sa, 24.10. 8:00 480 m 5/8 3/8 Sc Ac Ci
Sa, 24.10. 2:00 360 m - 8/8 - - -
Fr, 23.10. 20:00 210 m 7/8 5/8 Sc As Ci
Fr, 23.10. 14:00 270 m 8/8 8/8 Sc - -
Fr, 23.10. 8:00 270 m 8/8 3/8 Sc As Ci
Fr, 23.10. 2:00 2400 m - 8/8 - - -
Do, 22.10. 20:00 4800 m 3/8 3/8 - - Ci
Ortszeit Bedeckungsgrad in Achtel und Wolkenuntergrenze
Sa, 24.10. 19:00 1(1500m)
Sa, 24.10. 18:00 1(1140m)
Sa, 24.10. 17:00 3(930m) 3(1800m)
Sa, 24.10. 16:00 4(780m) 3(1800m)
Sa, 24.10. 15:00 4(1200m) 3(1800m)
Sa, 24.10. 14:00 4(990m) 3(1500m)
Ortszeit Luftdruck NN (hPa) Tendenz (hPa in 3 Std.)
Sa, 24.10. 14:00 1016 + 0,2
Sa, 24.10. 8:00 1015 + 1,3
Sa, 24.10. 2:00 1013 0,0
Fr, 23.10. 20:00 1013 - 0,4
Fr, 23.10. 14:00 1014 - 1,1
Fr, 23.10. 8:00 1016 - 0,2
Fr, 23.10. 2:00 1017 0,0
Do, 22.10. 20:00 1017 + 0,2
Ortszeit Luftdruck NN (hPa) Tendenz (hPa in 3 Std.)
Sa, 24.10. 19:00 1017 + 0,2
Sa, 24.10. 18:00 1016 - 0,2
Sa, 24.10. 17:00 1015 - 0,6
Sa, 24.10. 16:00 1015 - 0,6
Sa, 24.10. 15:00 1016 - 0,4
Sa, 24.10. 14:00 1016 + 0,2
Ortszeit Schneehöhe (cm)
Sa, 24.10. 14:00 -
Sa, 24.10. 8:00 -
Sa, 24.10. 2:00 -
Fr, 23.10. 20:00 -
Fr, 23.10. 14:00 -
Fr, 23.10. 8:00 -
Fr, 23.10. 2:00 -
Do, 22.10. 20:00 0
Ortszeit Schneehöhe (cm)
Sa, 24.10. 19:00 -
Sa, 24.10. 18:00 -
Sa, 24.10. 17:00 -
Sa, 24.10. 16:00 -
Sa, 24.10. 15:00 -
Sa, 24.10. 14:00 -
Link zu dieser Seite / Seite empfehlen

Das Wetter in ...